Flag for Italy Weather past 2 weeks in Palermo, Italy

Now
82 °F

Sunny.


Feels Like: 86 °F
Forecast: 71 / 83 °F
Wind: 14 mph from Northeast

Location: Palermo / Punta Raisi

Current Time: Jul 5, 2015 at 3:55:31 PM

Latest Report: Jul 5, 2015 at 2:50 PM


Visibility: 10 mi

Pressure: 30.12 "Hg

Humidity: 66%

Dew point: 70 °F

Location of PalermoLocation

Historic Weather in Palermo — Graph

°F

Palermo temperature yesterday

Maximum temperature yesterday: 82 °F (at 4:50 PM)
Minimum temperature yesterday: 72 °F (at 3:50 AM)
Average temperature yesterday: 78 °F

Past Weeks' High & Low Weather Summary

 TemperatureHumidityPressure
High88 °F (Jun 23, 6:20 PM)94% (Jun 24, 11:50 PM)30.21 "Hg (Jun 24, 11:50 PM)
Low66 °F (Jun 23, 4:50 AM)21% (Jun 24, 1:20 AM)29.86 "Hg (Jun 20, 3:50 PM)
Average76 °F72%30.07 "Hg
* Reported Jun 20 2:20 PM — Jul 5 2:20 PM, Palermo, Weather by CustomWeather, © 2015

Note: Actual official high and low records may vary slightly from our data, if they occured in-between our weather recording intervals... More about our weather records

Advertising

Palermo weather history for previous 24 hours

 ConditionsComfort  
Time TempWeatherWind HumidityBarometerVisibility
2:20 PM
Sun, Jul 5
82 °FSunny.12 mph66%30.12 "Hg10 mi
1:50 PM82 °FSunny.12 mph66%30.12 "Hg10 mi
1:20 PM82 °FSunny.12 mph70%30.12 "Hg10 mi
12:50 PM82 °FSunny.12 mph62%30.12 "Hg10 mi
12:20 PM81 °FSunny.9 mph74%30.12 "Hg10 mi
11:50 AM81 °FSunny.5 mph79%30.12 "Hg10 mi
11:20 AM81 °FSunny.7 mph79%30.12 "Hg10 mi
10:50 AM79 °FSunny.7 mph79%30.12 "Hg10 mi
10:20 AM79 °FSunny.3 mph74%30.12 "Hg10 mi
9:50 AM79 °FSunny.5 mph70%30.12 "Hg10 mi
9:20 AM79 °FSunny.3 mph70%30.12 "Hg10 mi
8:50 AM77 °FSunny.6 mph69%30.12 "Hg10 mi
8:20 AM77 °FSunny.3 mph69%30.12 "Hg10 mi
7:50 AM77 °FSunny.3 mph61%30.12 "Hg10 mi
7:20 AM75 °FSunny.3 mph69%30.09 "Hg10 mi
6:50 AM73 °FSunny.1 mph74%30.09 "Hg10 mi
6:20 AM73 °FClear.1 mph78%30.09 "Hg10 mi
5:50 AM73 °FClear.1 mph74%30.09 "Hg10 mi
5:20 AM73 °FClear.1 mph74%30.09 "Hg10 mi
4:50 AM73 °FClear.2 mph69%30.09 "Hg10 mi
4:20 AM73 °FClear.5 mph74%30.09 "Hg10 mi
3:50 AM73 °FClear.3 mph78%30.09 "Hg10 mi
3:20 AM73 °FClear.5 mph78%30.09 "Hg10 mi
2:50 AM73 °FClear.6 mph83%30.12 "Hg10 mi
2:20 AM75 °FClear.6 mph83%30.12 "Hg10 mi
1:50 AM75 °FClear.7 mph89%30.12 "Hg10 mi
1:20 AM77 °FClear.5 mph79%30.12 "Hg10 mi
12:50 AM77 °FClear.2 mph79%30.12 "Hg10 mi
12:20 AM77 °FPassing clouds.3 mph79%30.12 "HgN/A
11:50 PM
Sat, Jul 4
77 °FClear.1 mph74%30.12 "Hg10 mi
11:20 PM79 °FPassing clouds.3 mph70%30.12 "HgN/A
10:50 PM79 °FPassing clouds.5 mph74%30.12 "HgN/A
10:20 PM81 °FClear.8 mph51%30.12 "Hg10 mi
9:50 PM81 °FClear.8 mph54%30.12 "Hg10 mi
9:20 PM81 °FSunny.9 mph66%30.09 "Hg10 mi
8:50 PM81 °FSunny.9 mph70%30.12 "Hg10 mi
8:20 PM81 °FSunny.13 mph70%30.12 "Hg10 mi
7:50 PM82 °FSunny.13 mph66%30.12 "Hg10 mi
6:50 PM82 °FSunny.13 mph70%30.12 "Hg10 mi
6:20 PM82 °FSunny.13 mph66%30.12 "Hg10 mi
5:50 PM82 °FSunny.12 mph66%30.12 "Hg10 mi
5:20 PM82 °FSunny.14 mph66%30.12 "Hg10 mi
4:50 PM82 °FSunny.13 mph66%30.12 "Hg10 mi
4:20 PM81 °FSunny.15 mph70%30.12 "Hg10 mi
3:50 PM81 °FSunny.15 mph74%30.15 "Hg10 mi
3:20 PM81 °FSunny.15 mph74%30.15 "Hg10 mi
Weather by CustomWeather, © 2015

See weather overviewHow to use our weather pages